This demonstration page uses our WeatherBlox Daily Observations layout. Learn more.

Left ArrowRight Arrow

Hourly Observations for November 13, 2018

Temp ( °F °C ) Dew Point ( °F °C ) Humidity (%) Winds ( mph kmh ) Pressure ( in mb ) Visibility ( mi km ) Precip ( " mm )
12:53 am 00:53 Clear 27 -2.8 23 -5 85 85 NW 9 15 30.58 1036 10 16 0.00 0.00
1:53 am 01:53 Clear 25 -3.9 21 -6.1 85 85 WNW 7 11 30.58 1036 10 16 0.00 0.00
2:53 am 02:53 Clear 24 -4.4 20 -6.7 84 84 WNW 6 9 30.59 1036 10 16 0.00 0.00
3:53 am 03:53 Clear 22 -5.6 19 -7.2 89 89 NW 7 11 30.60 1036 10 16 0.00 0.00
4:53 am 04:53 Clear 24 -4.4 20 -6.7 84 84 WNW 8 13 30.60 1036 10 16 0.00 0.00
5:53 am 05:53 Clear 22 -5.6 19 -7.2 89 89 NNW 6 9 30.61 1037 10 16 0.00 0.00
6:53 am 06:53 Clear 21 -6.1 18 -7.8 88 88 NNW 5 7 30.63 1037 10 16 0.00 0.00
7:53 am 07:53 Sunny 22 -5.6 18 -7.8 85 85 N 5 7 30.64 1038 10 16 0.00 0.00
8:53 am 08:53 Sunny 29 -1.7 23 -5 78 78 NNW 5 7 30.65 1038 10 16 0.00 0.00
9:53 am 09:53 Sunny 37 2.8 24 -4.4 59 59 NW 7 11 30.65 1038 10 16 0.00 0.00
10:53 am 10:53 Sunny 41 5 17 -8.3 38 38 N 9 15 30.64 1038 10 16 0.00 0.00
11:53 am 11:53 Sunny 41 5 11 -11.7 29 29 undefined N/A 30.63 1037 10 16 0.00 0.00
12:53 pm 12:53 Sunny 44 6.7 12 -11.1 27 27 VRB 3 6 30.58 1036 10 16 0.00 0.00
1:53 pm 13:53 Sunny 47 8.3 12 -11.1 24 24 WNW 10 17 30.54 1034 10 16 0.00 0.00
2:53 pm 14:53 Sunny 49 9.4 9 -12.8 20 20 NW 10 17 30.52 1034 10 16 0.00 0.00
3:53 pm 15:53 Sunny 49 9.4 8 -13.3 19 19 W 7 11 30.51 1033 10 16 0.00 0.00
4:53 pm 16:53 Sunny 49 9.4 9 -12.8 20 20 NW 7 11 30.49 1033 10 16 0.00 0.00
5:53 pm 17:53 Sunny 44 6.7 13 -10.6 28 28 WNW 6 9 30.50 1033 10 16 0.00 0.00
6:53 pm 18:53 Clear 38 3.3 17 -8.3 43 43 W 8 13 30.51 1033 10 16 0.00 0.00
7:53 pm 19:53 Clear 35 1.7 19 -7.2 52 52 WNW 8 13 30.52 1034 10 16 0.00 0.00
8:53 pm 20:53 Clear 31 -0.6 21 -6.1 67 67 NNW 3 6 30.53 1034 10 16 0.00 0.00
9:53 pm 21:53 Clear 30 -1.1 21 -6.1 69 69 NNW 6 9 30.52 1033 10 16 0.00 0.00
10:53 pm 22:53 Clear 27 -2.8 21 -6.1 78 78 N 8 13 30.53 1034 10 16 0.00 0.00
11:53 pm 23:53 Clear 26 -3.3 21 -6.1 81 81 N 6 9 30.52 1034 10 16 0.00 0.00

Powered by AerisWeather